Temperature
6 6 7 7 7 7 7 7 7 8 8 8 8 8 8 8 8 8 8 7 7 7 7 7 7 6 6 6 6 6 6 5 5 5 5 5 4 4 4 4 4 4 4
6 6 6 6 6 6 6 7 7 7 7 7 7 7 7 7 7 7 7 7 7 7 7 6 6 6 6 6 5 5 5 5 5 5 5 4 4 4 4 4 4 4 4
5 5 6 6 6 6 6 6 7 7 7 7 7 7 7 7 7 7 6 6 6 6 6 6 6 6 5 5 5 5 5 5 4 4 4 4 4 3 3 3 3 3 3
5 5 5 5 6 6 6 6 6 6 6 6 6 6 6 6 6 6 6 6 6 6 5 5 5 5 5 4 4 4 4 4 4 3 3 3 3 3 3 3 3 3 3
4 5 5 5 5 5 5 5 5 5 5 6 6 6 6 6 5 5 5 5 5 5 5 5 4 4 4 4 4 4 3 3 3 3 3 2 2 2 2 2 2 2 2
4 4 4 4 4 5 5 5 5 5 5 5 5 5 5 5 5 5 5 4 4 4 4 4 4 3 3 3 3 3 3 3 3 2 2 2 2 1 1 1 1 1 1
3 3 4 4 4 4 4 4 4 4 4 4 4 4 4 4 4 4 4 4 3 3 4 4 3 3 3 2 2 2 2 2 2 2 1 1 1 1 1 1 0 0 0
3 3 3 3 3 4 4 3 4 4 4 4 4 4 4 3 3 3 3 3 3 3 3 3 3 3 2 2 2 2 2 1 1 1 1 1 1 0 0 -0 -0 -0 -0
2 2 2 3 3 3 3 3 3 3 3 3 3 3 3 3 3 3 2 2 2 2 2 2 2 2 2 1 1 1 1 1 1 0 0 0 0 -0 -0 -1 -1 -1 -1
1 2 2 2 2 2 2 2 2 2 2 2 2 2 2 2 2 2 2 2 1 1 1 1 1 1 1 1 1 1 0 0 0 0 -0 -0 -0 -0 -1 -1 -1 -2 -2
1 1 1 1 1 1 1 1 1 1 1 1 1 1 1 1 1 1 1 1 1 1 1 1 1 0 1 0 0 0 -0 -0 -0 -1 -1 -1 -1 -1 -1 -2 -2 -2 -2
0 0 0 0 0 0 0 1 1 1 1 1 0 0 0 0 0 0 0 0 0 0 0 0 0 -0 -0 -0 -0 -1 -1 -1 -1 -1 -2 -2 -2 -2 -2 -2 -2 -3 -3
-1 -1 -1 -0 -0 -0 -0 -0 -0 -0 -0 -0 -0 -0 -0 -1 -0 -1 -0 -1 -1 -0 -1 -1 -1 -1 -1 -1 -1 -1 -2 -2 -2 -2 -2 -2 -3 -3 -3 -3 -3 -3 -3
-2 -1 -1 -1 -1 -1 -1 -1 -1 -1 -1 -1 -1 -1 -1 -1 -1 -1 -1 -1 -1 -1 -1 -2 -2 -2 -2 -2 -2 -2 -2 -2 -3 -3 -3 -3 -3 -3 -3 -3 -4 -4 -4
-2 -2 -2 -2 -2 -2 -2 -2 -2 -2 -2 -2 -2 -2 -2 -2 -2 -2 -2 -2 -2 -2 -2 -2 -2 -2 -2 -3 -3 -3 -3 -3 -3 -3 -4 -4 -4 -4 -4 -4 -4 -5 -5
-3 -3 -3 -3 -2 -2 -2 -2 -2 -2 -2 -2 -2 -2 -2 -2 -2 -2 -2 -3 -3 -3 -3 -3 -3 -3 -3 -3 -3 -3 -4 -4 -4 -4 -4 -4 -5 -5 -5 -5 -5 -5 -5
-3 -3 -3 -3 -3 -3 -3 -3 -3 -3 -3 -3 -3 -3 -3 -3 -3 -3 -3 -3 -3 -3 -3 -3 -4 -4 -4 -4 -4 -4 -4 -4 -5 -5 -5 -5 -5 -5 -5 -5 -6 -6 -6
-4 -4 -4 -4 -3 -3 -3 -3 -3 -3 -3 -4 -4 -4 -3 -3 -4 -4 -4 -4 -4 -4 -4 -4 -4 -4 -5 -5 -5 -5 -5 -5 -5 -6 -6 -6 -6 -6 -6 -6 -6 -6 -6
-4 -4 -4 -4 -4 -4 -4 -4 -4 -4 -4 -4 -4 -4 -4 -4 -4 -4 -4 -4 -4 -4 -5 -5 -5 -5 -5 -5 -5 -5 -6 -6 -6 -6 -6 -6 -6 -7 -7 -7 -7 -7 -7
-4 -4 -5 -4 -4 -4 -4 -4 -4 -4 -4 -4 -4 -5 -5 -5 -5 -5 -5 -5 -5 -5 -5 -5 -6 -6 -6 -6 -6 -6 -6 -6 -6 -7 -7 -7 -7 -7 -7 -7 -7 -7 -7
-5 -5 -5 -5 -5 -5 -5 -5 -5 -5 -5 -5 -5 -5 -5 -5 -5 -5 -5 -5 -6 -6 -6 -6 -6 -6 -6 -6 -6 -7 -7 -7 -7 -7 -7 -7 -7 -7 -7 -7 -7 -7 -7
-5 -5 -5 -5 -5 -5 -6 -6 -6 -6 -6 -6 -6 -6 -6 -6 -6 -6 -6 -6 -6 -6 -6 -6 -6 -7 -7 -7 -7 -7 -7 -7 -7 -7 -7 -7 -7 -7 -7 -7 -7 -7 -7
-6 -6 -6 -6 -6 -6 -6 -6 -6 -6 -6 -6 -6 -6 -6 -6 -6 -6 -6 -6 -7 -7 -7 -7 -7 -7 -7 -7 -7 -7 -7 -7 -8 -8 -8 -8 -8 -8 -8 -8 -7 -7 -7
-6 -6 -6 -6 -6 -6 -6 -6 -6 -6 -6 -6 -6 -6 -7 -7 -7 -7 -7 -7 -7 -7 -7 -7 -7 -7 -7 -7 -8 -8 -8 -8 -8 -8 -8 -8 -8 -8 -8 -8 -8 -8 -8
-6 -6 -6 -6 -6 -6 -6 -6 -6 -6 -7 -7 -7 -7 -7 -7 -7 -7 -7 -7 -7 -8 -8 -8 -8 -8 -8 -8 -8 -8 -8 -8 -8 -8 -8 -8 -8 -8 -8 -8 -8 -8 -8
-6 -6 -6 -6 -6 -6 -6 -6 -7 -7 -7 -7 -7 -7 -7 -7 -7 -8 -8 -8 -8 -8 -8 -8 -8 -8 -8 -8 -8 -8 -8 -8 -8 -8 -8 -8 -8 -8 -8 -8 -8 -8 -8
Wind_Speed
5 5 5 5 5 4 4 5 5 4 5 6 6 6 7 6 6 6 6 6 7 5 5 6 5 3 3 2 1 1 1 1 3 3 2 2 2 3 4 5 6 6 6
6 6 5 5 4 4 5 5 4 4 4 5 5 5 6 6 6 6 6 6 7 7 6 6 5 3 3 2 2 2 1 1 2 3 2 2 3 3 3 4 4 5 6
5 4 5 4 4 4 5 3 3 4 4 4 5 5 5 6 6 6 6 6 7 7 7 6 6 5 4 2 2 2 2 1 1 2 2 2 2 2 3 3 4 4 5
4 4 4 4 4 4 3 3 3 4 4 4 4 5 5 5 5 6 6 6 6 5 5 6 6 6 5 4 3 3 2 1 1 1 1 2 2 2 2 3 4 3 4
4 4 4 4 3 3 2 2 2 3 4 4 4 4 4 4 5 5 6 5 5 5 5 5 5 5 6 5 4 3 3 2 1 2 2 2 2 2 2 2 4 5 4
4 4 4 3 2 2 1 1 1 2 2 3 4 4 4 4 5 7 6 5 5 6 5 5 4 5 5 5 5 5 4 4 3 3 3 3 4 3 3 3 3 4 4
4 3 3 2 1 1 1 1 1 2 2 3 3 4 4 4 6 7 7 5 5 5 6 5 4 4 4 4 3 2 2 3 4 4 4 4 3 4 3 4 3 3 4
4 4 2 1 1 0 1 1 1 1 2 2 3 3 3 4 6 7 6 5 4 3 3 5 5 5 4 4 3 2 2 2 2 2 3 3 3 3 3 3 3 3 3
4 4 3 1 1 1 1 1 1 1 1 1 2 3 3 3 4 6 6 4 4 3 2 2 4 5 6 5 4 3 1 1 1 1 2 2 2 3 2 1 1 2 3
5 4 3 1 1 1 1 1 1 2 2 2 2 2 3 3 4 5 5 4 4 3 2 2 3 4 5 5 4 4 3 2 1 0 1 2 3 3 3 1 1 2 3
4 3 3 2 2 2 2 2 2 3 3 3 3 3 3 3 4 4 4 3 4 3 3 2 1 2 3 3 2 2 3 2 2 1 1 1 2 2 2 2 2 2 2
3 3 3 3 3 3 3 3 3 3 4 4 4 3 3 3 3 3 3 3 3 3 2 2 2 2 1 1 1 2 2 3 2 2 1 1 1 2 2 2 3 2 2
3 3 3 4 3 2 2 3 3 3 3 3 3 3 2 2 2 3 3 4 4 3 2 3 2 3 3 3 3 3 3 3 2 1 1 1 1 2 2 2 3 3 3
3 3 3 3 3 3 2 2 2 2 2 2 2 2 2 2 2 2 2 3 4 4 3 4 5 6 5 4 3 3 2 1 1 1 0 0 1 2 2 2 2 3 3
3 3 3 2 2 3 3 2 2 1 2 2 2 2 2 1 1 2 2 2 2 3 4 3 3 3 2 2 2 2 2 1 1 0 0 0 1 1 2 2 2 2 2
2 2 2 2 2 2 3 3 5 3 4 4 4 3 2 2 2 2 3 3 4 6 5 3 3 2 1 1 1 1 1 1 1 0 0 1 1 1 2 2 2 2 3
1 1 1 1 1 1 2 2 2 4 5 5 4 4 3 3 3 3 3 5 5 6 4 3 2 1 1 1 0 0 1 1 1 1 1 1 1 2 2 2 2 3 3
1 1 1 1 1 1 1 1 1 1 2 2 3 4 4 4 4 4 4 5 3 3 2 2 1 1 0 0 0 1 1 1 1 1 1 1 1 2 2 2 3 3 4
1 1 1 1 1 1 1 1 1 1 1 1 2 2 3 3 4 4 4 3 2 1 1 1 0 0 0 1 1 1 1 1 1 1 1 2 2 2 2 3 3 4 4
0 1 1 1 1 1 1 1 1 1 1 1 1 1 1 2 2 2 2 2 2 1 1 0 0 0 1 1 1 1 1 1 1 2 2 2 2 2 3 3 3 3 4
0 0 1 1 1 1 1 1 1 1 1 1 0 1 1 2 2 1 1 1 1 0 0 0 0 0 1 1 1 1 2 2 2 2 2 2 3 3 3 3 3 3 4
1 1 0 1 1 1 1 1 1 1 1 1 1 1 2 2 1 1 1 1 0 0 0 0 1 1 1 2 2 2 2 3 3 3 3 3 3 3 3 3 3 3 4
1 1 1 1 1 1 1 1 1 1 1 1 1 1 1 1 1 1 0 0 1 1 1 0 1 1 2 2 3 3 3 4 4 4 3 3 3 3 3 4 4 4 4
1 1 1 1 1 1 1 1 1 1 1 1 1 1 1 1 0 0 0 0 1 1 1 1 1 2 3 3 3 4 5 5 5 5 4 4 4 4 4 4 4 4 4
1 1 1 1 1 1 1 1 1 1 1 1 1 1 1 1 0 0 0 1 1 1 2 2 2 3 3 4 5 5 6 7 7 6 5 3 3 3 3 3 3 3 3
1 1 1 1 1 1 1 1 1 1 1 1 1 1 1 1 1 0 1 1 1 2 2 3 3 4 5 5 6 6 7 7 7 6 5 4 3 3 3 3 3 3 3
Wind_Direction
284 272 262 249 242 240 243 235 219 209 199 199 196 190 188 189 190 191 195 189 188 187 184 181 187 183 179 186 176 185 203 189 237 277 281 292 283 289 307 306 302 300 303
287 285 271 254 239 237 249 240 214 201 197 196 190 187 189 190 190 189 192 189 187 187 188 181 184 179 178 189 188 193 210 210 213 254 277 284 281 283 295 302 313 311 311
289 287 285 271 247 244 253 236 208 190 185 186 186 186 187 188 190 192 187 189 187 185 185 185 185 177 185 194 190 197 218 229 201 216 261 279 292 302 313 310 312 312 313
303 295 282 264 252 251 240 224 208 184 178 186 190 186 183 187 188 188 185 185 183 180 184 189 187 185 189 190 194 198 198 188 177 205 259 283 298 304 308 310 313 310 309
308 297 288 267 255 248 226 215 208 189 182 179 178 180 178 181 187 182 178 176 176 175 181 188 188 187 191 195 199 195 184 188 202 227 263 289 294 303 293 293 299 309 303
308 296 292 267 240 212 217 205 183 176 166 162 173 182 187 190 181 176 172 165 169 174 182 185 184 186 194 199 202 199 192 199 211 226 251 261 270 275 284 290 299 312 303
313 299 295 283 237 208 220 172 160 152 149 159 174 181 184 180 174 173 165 158 159 176 183 182 183 188 185 189 190 182 216 236 232 227 237 250 256 257 265 280 285 286 284
328 322 320 321 325 335 134 147 153 137 148 153 158 164 161 165 166 164 159 148 146 150 174 183 182 184 190 184 180 189 218 249 257 250 230 244 256 261 257 265 269 281 288
334 330 332 342 354 63 102 127 113 117 117 132 142 131 133 144 146 151 143 138 136 142 155 167 181 188 194 184 181 186 203 248 279 255 273 290 310 312 312 318 316 319 307
327 321 328 354 46 65 74 64 60 94 99 91 95 111 126 135 143 142 131 134 138 147 148 156 181 195 198 191 186 182 202 227 204 62 25 4 359 352 348 328 261 285 301
326 337 357 30 56 61 59 63 80 86 89 85 82 81 91 107 122 128 131 137 152 156 153 153 177 182 191 202 199 188 212 196 146 124 85 13 4 6 0 342 312 269 274
351 10 19 32 42 51 70 68 75 89 94 92 88 78 75 82 93 105 104 106 127 141 153 160 167 157 140 123 92 117 103 90 101 97 78 17 353 336 325 328 322 307 277
8 21 29 35 42 49 76 84 78 85 97 100 103 98 81 70 78 86 94 96 95 97 116 127 118 99 85 84 82 86 83 94 110 104 82 345 323 309 319 334 340 340 320
16 15 30 45 41 43 50 71 90 94 99 102 106 105 96 81 72 75 81 86 89 90 95 99 88 79 69 66 64 56 53 82 101 125 147 314 319 321 324 323 321 324 320
18 19 29 40 50 47 42 45 64 71 108 123 120 118 117 106 81 73 94 109 120 123 109 95 87 81 69 62 65 69 57 54 53 54 112 345 331 333 326 326 320 321 312
14 17 31 42 46 57 61 47 38 50 61 69 81 95 102 111 102 87 84 99 107 115 105 109 107 105 103 79 64 43 32 34 16 348 321 306 314 319 321 325 325 317 308
352 351 30 49 53 55 63 75 59 43 50 57 66 75 90 98 92 87 87 99 104 102 92 108 114 119 112 84 63 0 329 324 318 293 292 298 302 306 311 315 318 316 310
359 8 25 39 50 58 62 67 84 87 68 50 52 64 73 81 78 79 91 95 88 78 90 111 114 123 146 185 254 301 301 303 299 295 298 295 291 295 301 303 305 302 303
3 15 40 61 59 60 66 76 84 88 94 84 61 54 62 74 77 77 85 87 103 93 79 83 81 70 250 245 252 257 259 268 274 279 279 280 287 293 293 293 296 303 305
6 34 52 82 89 79 77 82 92 101 101 99 97 75 59 77 87 73 61 72 86 86 80 79 18 307 284 264 255 251 261 271 269 271 273 275 279 280 280 283 287 293 293
114 72 62 77 110 129 125 120 118 115 122 124 120 126 105 119 119 104 87 78 95 106 55 287 283 293 285 274 256 250 260 270 268 269 271 273 274 278 277 279 284 287 292
152 140 134 143 136 139 130 131 132 127 127 122 81 59 63 81 96 100 87 60 29 337 284 282 291 284 261 251 253 253 259 265 264 265 267 270 272 273 277 282 288 291 293
151 146 142 139 142 150 125 123 137 154 160 144 126 105 97 96 98 104 90 47 354 337 350 287 278 282 282 270 259 252 255 259 258 254 267 270 272 273 274 276 280 283 285
154 157 161 164 151 152 154 154 160 156 147 149 147 138 133 132 126 84 32 353 341 340 329 298 272 273 286 290 282 269 263 263 258 250 248 258 268 273 273 273 273 275 277
148 154 166 182 179 175 174 173 169 155 150 153 150 142 140 142 137 45 327 317 315 309 310 305 290 287 289 292 290 282 280 285 280 263 251 248 262 270 273 274 274 279 278
151 157 171 192 200 200 197 196 175 150 150 155 158 162 168 181 204 238 266 281 300 300 299 300 291 291 293 293 291 295 295 292 290 281 261 241 250 260 265 269 269 271 277
Height
1468 1468 1468 1468 1468 1469 1468 1468 1469 1469 1471 1472 1474 1476 1478 1481 1483 1485 1486 1488 1490 1491 1493 1495 1496 1497 1498 1499 1500 1501 1501 1501 1500 1499 1499 1498 1498 1497 1495 1494 1493 1492 1490
1464 1463 1463 1463 1463 1463 1463 1463 1464 1464 1466 1467 1469 1471 1473 1475 1477 1479 1481 1482 1484 1486 1488 1489 1491 1493 1494 1495 1496 1496 1497 1497 1496 1495 1494 1494 1493 1493 1491 1490 1488 1487 1486
1459 1459 1458 1458 1458 1458 1458 1459 1459 1460 1461 1462 1464 1465 1467 1470 1472 1474 1476 1477 1479 1482 1484 1485 1486 1488 1489 1490 1491 1492 1492 1492 1492 1491 1490 1490 1489 1488 1487 1485 1484 1483 1482
1455 1454 1454 1454 1454 1454 1454 1454 1454 1455 1456 1458 1459 1461 1463 1465 1467 1469 1471 1473 1475 1477 1479 1481 1482 1483 1484 1486 1487 1488 1488 1488 1487 1487 1486 1485 1485 1484 1483 1481 1479 1478 1477
1451 1450 1450 1450 1450 1450 1450 1450 1451 1451 1452 1453 1455 1457 1458 1460 1462 1464 1466 1468 1470 1472 1474 1476 1478 1479 1480 1482 1483 1483 1484 1483 1483 1483 1482 1481 1481 1480 1479 1477 1475 1473 1472
1447 1446 1446 1446 1445 1445 1446 1446 1447 1447 1448 1449 1451 1453 1454 1455 1458 1460 1462 1463 1465 1467 1470 1472 1473 1475 1476 1478 1479 1479 1480 1479 1479 1478 1478 1477 1476 1476 1475 1474 1471 1469 1467
1444 1443 1442 1442 1441 1441 1442 1442 1443 1443 1444 1445 1447 1449 1450 1452 1454 1456 1458 1460 1461 1463 1465 1467 1469 1470 1472 1473 1474 1475 1475 1475 1476 1475 1474 1473 1472 1472 1471 1469 1467 1466 1464
1441 1439 1439 1438 1438 1438 1439 1439 1440 1440 1441 1442 1444 1446 1447 1449 1450 1452 1454 1456 1458 1459 1461 1463 1464 1466 1467 1468 1470 1470 1470 1471 1471 1470 1470 1469 1469 1468 1467 1466 1463 1462 1460
1438 1437 1436 1435 1435 1435 1436 1436 1437 1438 1439 1440 1441 1443 1444 1446 1447 1449 1451 1452 1453 1455 1458 1459 1461 1462 1463 1464 1465 1465 1465 1466 1466 1466 1466 1465 1465 1464 1463 1462 1460 1458 1455
1436 1435 1434 1433 1433 1433 1433 1434 1435 1436 1437 1439 1440 1441 1442 1444 1445 1446 1448 1449 1450 1452 1454 1456 1457 1458 1459 1460 1461 1461 1461 1461 1461 1461 1461 1461 1460 1460 1459 1458 1456 1454 1452
1435 1434 1433 1432 1432 1432 1432 1433 1434 1435 1436 1437 1438 1439 1441 1442 1443 1445 1446 1447 1448 1450 1451 1452 1453 1454 1455 1456 1457 1457 1457 1457 1457 1457 1457 1456 1456 1456 1455 1454 1452 1451 1449
1434 1433 1432 1432 1431 1432 1432 1432 1433 1433 1434 1436 1437 1438 1440 1442 1442 1443 1444 1445 1446 1447 1448 1449 1450 1451 1452 1452 1452 1452 1453 1453 1453 1453 1453 1452 1452 1452 1451 1450 1449 1447 1446
1433 1433 1432 1432 1432 1432 1431 1432 1432 1433 1434 1435 1436 1437 1438 1440 1441 1442 1443 1444 1444 1445 1446 1447 1448 1448 1449 1449 1449 1449 1449 1450 1450 1450 1449 1449 1449 1448 1447 1446 1445 1444 1442
1433 1432 1431 1431 1431 1431 1431 1432 1432 1433 1434 1434 1435 1436 1437 1439 1440 1441 1441 1442 1442 1443 1444 1445 1446 1446 1447 1447 1447 1447 1447 1447 1447 1447 1447 1446 1446 1445 1444 1443 1441 1440 1439
1432 1431 1431 1431 1431 1431 1431 1432 1433 1433 1434 1435 1435 1436 1437 1438 1439 1440 1440 1441 1441 1442 1442 1443 1444 1444 1445 1444 1445 1445 1445 1445 1445 1445 1444 1443 1443 1442 1441 1440 1439 1437 1436
1431 1431 1431 1431 1430 1431 1431 1432 1433 1434 1435 1435 1436 1437 1437 1438 1439 1439 1440 1440 1441 1441 1441 1441 1442 1442 1443 1442 1442 1442 1443 1442 1442 1442 1441 1441 1440 1439 1438 1437 1436 1435 1433
1431 1431 1430 1430 1430 1430 1431 1431 1432 1434 1434 1435 1435 1436 1437 1438 1438 1438 1439 1439 1439 1440 1440 1440 1440 1440 1441 1441 1441 1441 1440 1440 1440 1439 1439 1438 1438 1437 1436 1434 1433 1432 1430
1430 1430 1430 1430 1430 1430 1431 1431 1432 1432 1433 1434 1435 1436 1436 1437 1437 1437 1438 1438 1438 1438 1438 1438 1438 1439 1439 1439 1439 1439 1438 1438 1437 1437 1436 1436 1435 1434 1433 1432 1430 1429 1427
1430 1429 1429 1429 1430 1430 1430 1431 1431 1432 1432 1433 1434 1435 1435 1436 1436 1436 1436 1436 1436 1436 1436 1436 1436 1436 1437 1437 1437 1436 1436 1435 1435 1434 1434 1433 1432 1431 1430 1429 1428 1426 1425
1429 1429 1429 1429 1429 1429 1429 1430 1430 1430 1431 1432 1432 1433 1433 1434 1434 1434 1434 1434 1434 1434 1434 1434 1434 1434 1434 1434 1433 1433 1433 1432 1432 1431 1431 1430 1429 1428 1427 1426 1425 1424 1422
1428 1428 1428 1428 1428 1428 1428 1428 1429 1429 1430 1430 1431 1432 1432 1432 1432 1432 1433 1433 1433 1433 1433 1432 1432 1432 1432 1431 1431 1430 1430 1429 1429 1428 1427 1427 1426 1425 1424 1423 1422 1421 1419
1427 1427 1427 1427 1427 1427 1427 1427 1428 1428 1428 1429 1429 1430 1430 1431 1431 1431 1431 1431 1431 1431 1431 1430 1429 1429 1429 1429 1428 1427 1427 1426 1425 1425 1424 1423 1423 1422 1421 1420 1419 1418 1416
1426 1426 1426 1426 1426 1426 1426 1426 1427 1427 1427 1428 1428 1428 1429 1429 1429 1429 1429 1429 1429 1429 1428 1428 1427 1427 1427 1426 1425 1425 1424 1423 1422 1422 1421 1420 1419 1419 1418 1417 1416 1415 1414
1425 1425 1425 1425 1425 1425 1425 1425 1426 1426 1426 1426 1427 1427 1427 1427 1427 1427 1427 1427 1427 1427 1426 1426 1425 1425 1424 1423 1422 1422 1421 1420 1420 1419 1418 1417 1416 1415 1414 1414 1413 1412 1411
1424 1424 1424 1424 1424 1424 1424 1424 1424 1425 1425 1425 1426 1426 1426 1426 1426 1426 1425 1425 1425 1424 1424 1424 1423 1422 1422 1421 1420 1419 1418 1418 1417 1416 1415 1414 1413 1412 1411 1410 1410 1409 1408
1422 1422 1422 1423 1423 1423 1423 1423 1423 1424 1424 1424 1424 1424 1424 1424 1424 1424 1423 1423 1423 1422 1422 1421 1421 1420 1419 1418 1417 1417 1416 1415 1414 1414 1413 1412 1410 1409 1408 1407 1407 1406 1405